Погода в Шымкенте

Погода в Шымкенте : погода сейчас, прогноз погоды и архив. Всё, что Вы хотите узнать о погоде в Шымкенте!

Поиск расширенной информации на нашем сайте:

Полезная информация:

Другие новости

Новости СМИ2

Главная страница сайта

Новости сайта

03.07.2017

Напоминаем, что на нашем специализированном сайте Метеоцентр.Азия вы можете получить высокодетализированные автоматические прогнозы погоды по пунктам России, СНГ и мира в авиационном формате (включающие направление и скорость ветра, видимость, явления погоды, количество и форму облачности, нижнюю и верхнюю границу облачности).

Рекомендуем:

Погода в Шымкенте - сегодня

Время (UTC), дата Ветер
(°,м/с) 
Видим.   Явления Облачность Т
(°С)
Тd
(°С)
f(%) Тe
(°С)
Pmin
(гПа)
dP
(гПа)
Po
(мм)
O2
(г/м3)
Тmin Tmax R s Состояние
почвы
00 16.07.19 050 (СВ) 20000 м    ясно 
+20.6 +7.9 44 +21  999.6  -0.1  699  261           
03 16.07.19 090 (В) 20000 м    ясно 
+30.9 +7.9 24 +31  998.3  700  252           
06 16.07.19 090 (В) 20000 м    ясно 
+36.2 +7.6 17 +36  997.6  0.4  701  248  +20.4         
09 16.07.19 360 (С) 20000 м    ясно 
+38.4 +4.4 12 +38  996.9  -0.3  700  247           
12 16.07.19 320 (СЗ) 20000 м    ясно 
+38.8 +4.5 12 +39  996.3  -0.5  700  246           
15 16.07.19 100 (В) 20000 м    ясно 
+31.7 +9.6 26 +34  998.3  0.6  700  251    +39.2       
18 16.07.19 120 (ЮВ) н/о    ясно 
+27 +8.1 30 +27  1000  0.5  701  256    +39.2       
21 16.07.19 140 (ЮВ) н/о    ясно 
+26.8 +6.1 27 +27  999.7  -0.2  701  256           
00 17.07.19 090 (В) 20000 м    ясно 
+24.6 +7.7 34 +25  1000.5  0.2  701  258           
03 17.07.19 080 (В) 20000 м    ясно 
+31.3 +9.9 27 +34  1000.4  1.4  702  252           
06 17.07.19 020 (С) 20000 м    ясно 
+38.4 +9.8 18 +41  998.7  -0.2  702  246  +23.3         
09 17.07.19 тихо ()   20000 м    ясно 
+38.8 +3.3 11 +39  998.2  -0.5  701  247           
12 17.07.19 020 (С) 20000 м    ясно 
+38.5 +1.8 10 +39  998  -0.3  701  247           
15 17.07.19 тихо ()   20000 м    ясно 
+31 +6.3 21 +31  1000.2  0.6  701  253    +39.5       
18 17.07.19 тихо ()   н/о    ясно 
+25.5 +8.6 34 +26  1001.9  0.6  702  257    +39.5       
21 17.07.19 280 (З) н/о    ясно 
+24.7 +8.9 37 +26  1001  -1.1  701  257           
00 18.07.19 090 (В) 20000 м    ясно 
+22.1 +8.8 43 +23  1001.5  701  260           
03 18.07.19 140 (ЮВ) 20000 м    ясно 
+31.7 +9.3 25 +33  1000  0.6  702  252           
06 18.07.19 180 (Ю) 20000 м    ясно 
+37.7 +7.1 15 +38  998.8  702  247  +22         
09 18.07.19 190 (Ю) 20000 м    ясно 
+39.1 +5.2 13 +39  997.8  -0.6  701  246           
12 18.07.19 230 (ЮЗ) 20000 м    ясно 
+39.5 +2.4 10 +40  997.3  -0.5  701  246           
15 18.07.19 тихо ()   20000 м    ясно 
+31.6 +9.1 25 +33  999.2  0.2  701  252    +40.2       
18 18.07.19 100 (В) н/о    ясно 
+28.4 +5.7 24 +28  1000.4  0.4  701  255    +40.2       
21 18.07.19 100 (В) н/о    ясно 
+27.2 +7.1 28 +27  1000.1  -0.5  701  256           
00 19.07.19 110 (В) 20000 м    ясно 
+24.6 +7.2 33 +25  1001  0.3  701  258           
Время (UTC), дата Ветер
(°,м/с) 
Видим.   Явления Облачность Т
(°С)
Тd
(°С)
f(%) Тe
(°С)
Pmin
(гПа)
dP
(гПа)
Po
(мм)
O2
(г/м3)
Тmin Tmax R s Состояние
почвы

Для получения пояснительной информации подведите курсор к названию столбца.

ПОГОДА в Шымкенте - архив

Всё, что Вы хотите узнать о погоде в Шымкенте - удобно и подробно!

Выберите нужную дату (начиная с 1 января 2018* года) и нажмите кнопку "Найти".
Будут отображены архивные сводки погоды по пункту Шымкент, начиная с указанной даты.


Отображать данные в формате CSV (для использования в таблицах Excel)


Внимание! Наш архив погоды предназначен исключительно для личного некоммерческого использования в познавательных целях. Если Вам необходимы официальные справки о состоянии погоды (для производственных, юридических, коммерческих и т.п. целей), обращайтесь в органы Росгидромета.

*Примечание: данная дата относится к архиву по метеостанциям СССР (Россия, СНГ, Балтия).
Архив по метеостанциям Зарубежной Европы и Азии (кроме Китая) хранится 10 дней, по другим регионам земного шара (Китай, Африка, Америка, Австралия, Океания) - 1 день.

Шымкент - район местоположения метеостанции


Название, широта, долгота, высота метеостанции:
Шымкент (город) 42.3°ш. 69.7°д. 604 м над ур. моря [Казахстан]

Дополнительная информация

В oтличие oт бoльшинства пoгoдных сайтoв мы публикуем пoдрoбную метеoинфoрмацию в детальнoм прoфессиoнальнoм фoрмате.

Характеристики температуры и влажнoсти вoздуха измеряются на высoте 2 м в тени вдали oт зданий и деревьев.
Скoрoсть ветра измеряется на высoте 10 м (на урoвне рoста челoвека скoрoсть ветра ниже в 1.5-2 раза). Если метеoстанция нахoдится в гoрoде или в лесу, тo скoрoсть ветра занижена на 2-4 м/с пo сравнению с oткрытым местoм. Скoрoсть ветра над акватoриями крупных рек и oзёр, а также на вершинах хoлмoв на 2-5 м/с выше, чем в oбычных услoвиях.
Атмoсфернoе давление в разных тoчках местнoсти мoжет значительнo oтличаться oт давления на метеoстанции, в зависимoсти oт услoвий рельефа (при пoдъёме на 10 м давление пoнижается примернo на 1 мм рт.ст.).